Home   Weather   Bamenda   Past weeks

Flag for Cameroon Past Weather in Bamenda, Cameroon — Yesterday and Last 2 Weeks

Now
91 °F

Scattered clouds.


Feels Like: 105 °F
Forecast: 51 / 91 °F
Wind: 12 mph from West

Location: Douala Obs.

Current Time: Jan 18, 2017 at 3:24:30 pm

Latest Report: Jan 18, 2017 at 2:00 pm


Visibility: 4 mi

Pressure: 29.77 "Hg (25.92 "Hg at 1240m altitude)

Humidity: 63%

Dew Point: 77 °F

Location of BamendaLocation

Past Weather in Bamenda — Graph

°F

Bamenda Temperature Yesterday

Maximum temperature yesterday: 91 °F (at 12:00 pm)
Minimum temperature yesterday: 77 °F (at 7:00 am)
Average temperature yesterday: 84 °F

High & Low Weather Summary for the Past Weeks

 TemperatureHumidityPressure
High93 °F (Jan 3, 3:00 pm)100% (Jan 4, 6:00 am)29.89 "Hg (Jan 4, 6:00 am)
Low75 °F (Jan 11, 5:00 am)52% (Jan 5, 12:00 pm)29.68 "Hg (Jan 5, 4:00 pm)
Average83 °F83%29.79 "Hg
* Reported Jan 3 2:00 pm — Jan 18 2:00 pm, Bamenda, Weather by CustomWeather, © 2017

Note: Actual official high and low records may vary slightly from our data, if they occured in-between our weather recording intervals... More about our weather records

Advertising

Bamenda Weather History for the Previous 24 Hours

Scroll right to see more
 ConditionsComfort  
Time TempWeatherWind HumidityBarometerVisibility
2:00 pm
Wed, Jan 18
91 °FScattered clouds.12 mph63%29.77 "Hg4 mi
1:00 pm90 °FPartly sunny.8 mph63%29.80 "Hg4 mi
12:00 pm88 °FPartly sunny.6 mph75%29.80 "Hg4 mi
11:00 am90 °FPartly sunny.5 mph67%29.83 "Hg2 mi
10:00 am86 °FPartly sunny.3 mph79%29.86 "Hg4 mi
9:00 am82 °FFog.No wind89%29.86 "Hg2 mi
8:00 am79 °FFog.2 mph100%29.83 "Hg1 mi
7:00 am77 °FThunderstorms. Fog.1 mph100%29.80 "Hg1 mi
6:00 am79 °FThunderstorms. Fog.No wind94%29.80 "Hg2 mi
5:00 am79 °FThunderstorms. Fog.No wind100%29.77 "Hg2 mi
4:00 am79 °FThunderstorms. Fog.No wind100%29.77 "Hg2 mi
3:00 am79 °FThunderstorms. Passing clouds.No wind100%29.77 "Hg4 mi
2:00 am79 °FPassing clouds.No wind100%29.77 "Hg4 mi
1:00 am79 °FPassing clouds.No wind100%29.77 "HgN/A
12:00 am81 °FPassing clouds.No wind94%29.80 "HgN/A
11:00 pm
Tue, Jan 17
81 °FPassing clouds.No wind94%29.80 "Hg5 mi
10:00 pm84 °FPassing clouds.2 mph89%29.80 "Hg5 mi
9:00 pm84 °FPassing clouds.2 mph89%29.80 "Hg5 mi
8:00 pm82 °FPassing clouds.3 mph89%29.74 "Hg5 mi
7:00 pm84 °FPassing clouds.3 mph84%29.74 "Hg5 mi
6:00 pm86 °FScattered clouds.7 mph75%29.71 "Hg5 mi
5:00 pm88 °FScattered clouds.8 mph75%29.68 "Hg5 mi
4:00 pm88 °FScattered clouds.9 mph70%29.68 "Hg5 mi
3:00 pm90 °FScattered clouds.12 mph67%29.68 "Hg5 mi
Weather by CustomWeather, © 2017

See weather overviewHow to use our weather pages